Regional Weather Roundup
Issued by NWS Boston, MA

Home | Current Version | Previous Version | Text Only | Print | Product List | Glossary On
Versions: 1 2 3 4 5 6 7 8 9 10 11 12 13 14 15 16 17 18 19 20 21 22 23 24 25 26 27 28
000
ASUS41 KBOX 171010
RWRBOX

REGIONAL WEATHER ROUNDUP
NATIONAL WEATHER SERVICE TAUNTON MA
600 AM EDT THU APR 17 2014

NOTE:  "FAIR" INDICATES FEW OR NO CLOUDS BELOW 12,000 FEET WITH NO
SIGNIFICANT WEATHER AND/OR OBSTRUCTIONS TO VISIBILITY.  THE FOLLOWING
OBSERVATION LOCATIONS DO NOT REPORT PRESENT WEATHER...PROVINCETOWN...
SMITHFIELD...BLOCK ISLAND...KEENE...AND OXFORD.

MAZALL-171100-
EASTERN MASSACHUSETTS

CITY           SKY/WX    TMP DP  RH WIND       PRES   REMARKS
BOSTON         PTCLDY    32  20  61 NE14      30.73R WCI  22
BEVERLY        CLEAR     31  17  56 NE8       30.73R WCI  23
LAWRENCE       CLEAR     26  14  60 N10       30.75R WCI  16
BEDFORD        CLEAR     25  16  68 N6        30.72R WCI  18
BLUE HILL        N/A     30  20  66 NE13G24   30.67R WCI  20
NORWOOD        PTCLDY    32  21  64 NE8       30.71R WCI  25
MARSHFIELD       N/A    N/A N/A N/A MISG        N/A
PLYMOUTH       PTCLDY    33  21  61 NE15      30.69R WCI  23
TAUNTON        CLEAR     32  22  66 NE5       30.69R WCI  27
NEW BEDFORD    CLEAR     32  22  66 N6        30.67R WCI  26
$$

MAZALL-171100-
CAPE COD AND THE ISLANDS

CITY           SKY/WX    TMP DP  RH WIND       PRES   REMARKS
FALMOUTH       PTCLDY    34  23  64 NE15G22   30.67R WCI  24
HYANNIS        PTCLDY    34  23  64 NE13G21   30.66R WCI  25
CHATHAM        PTCLDY    35  23  61 NE15G24   30.68R WCI  25
PROVINCETOWN   PTCLDY    34  23  64 MISG      30.71R
NANTUCKET      PTCLDY    35  23  61 NE21G31   30.63S WCI  24
MARTHAS VNYRD  PTCLDY    36  23  59 NE18G28   30.65R WCI  26
$$

MAZALL-171100-
CENTRAL AND WESTERN MASSACHUSETTS

CITY           SKY/WX    TMP DP  RH WIND       PRES   REMARKS
WORCESTER      CLEAR     24  14  65 NE7       30.67R WCI  16
FITCHBURG      CLEAR     26  16  65 N5        30.74R WCI  20
ORANGE         CLEAR     22  18  85 NW5       30.70R WCI  16
SPRINGFIELD    CLEAR     23  22  98 NE3       30.71R
WESTFIELD      CLEAR     26  18  71 N8        30.71R WCI  18
NORTH ADAMS    CLEAR     25  18  74 E3        30.68R
PITTSFIELD     CLEAR     24  16  71 CALM      30.63R
$$

RIZALL-171100-
RHODE ISLAND

CITY           SKY/WX    TMP DP  RH WIND       PRES   REMARKS
PROVIDENCE     PTCLDY    31  19  61 NE13      30.70R WCI  21
NEWPORT        CLEAR     32  21  64 NE13      30.67R WCI  22
BLOCK ISLAND   CLEAR     36  23  60 NE16G24   30.64S WCI  26
SMITHFIELD     CLEAR     27  16  63 NE6       30.69R WCI  20
WESTERLY       CLEAR     31  18  58 N7        30.68R WCI  24
$$

CTZALL-171100-
CONNECTICUT

CITY           SKY/WX    TMP DP  RH WIND       PRES   REMARKS
BRADLEY INTL   PTCLDY    27  19  72 N6        30.70R WCI  20
HARTFORD       CLEAR     31  18  58 N9        30.71R WCI  23
BRIDGEPORT     CLEAR     33  21  61 NE8       30.67S WCI  26
DANBURY        CLEAR     29  19  66 NE7       30.67R WCI  22
GROTON         CLEAR     32  18  56 NE12      30.68R WCI  23
NEW HAVEN      PTCLDY    31  18  58 N9        30.67S WCI  23
CHESTER        FAIR      32  14  47 NE7       30.67R WCI  26
MERIDEN        CLEAR     30  19  63 N6        30.70R WCI  24
WILLIMANTIC    CLEAR     29  17  61 N5        30.70R WCI  24
OXFORD         PTCLDY    28  16  59 E12       30.67R WCI  18
$$

MEZ002-015-021-024-NHZ003-005-008-011-012-014-VTZ005-008-171100-
NORTHERN NEW ENGLAND

CITY           SKY/WX    TMP DP  RH WIND       PRES   REMARKS
PORTLAND ME    CLEAR     23  15  71 N8        30.78R WCI  14
BANGOR ME      PTCLDY    20  13  74 N5        30.78R WCI  13
CONCORD NH     CLEAR     19  17  92 CALM      30.75R
MANCHESTER NH  PTCLDY    27  13  55 NE6       30.74R WCI  20
NASHUA NH      CLEAR     27  15  60 CALM      30.75R
PORTSMOUTH NH  PTCLDY    27  11  51 N8        30.75R WCI  19
JAFFREY NH     CLEAR     21  17  84 CALM      30.69R
KEENE NH       CLEAR     23  16  74 CALM      30.72R
BURLINGTON VT  CLEAR     22  16  78 NE7       30.72S WCI  13
MT. WASHINGTON PTCLDY    19 -26  12 SW9         N/A  WCI   9
$$

NYZ052-076-171100-
EASTERN NEW YORK

CITY           SKY/WX    TMP DP  RH WIND       PRES   REMARKS
ALBANY         PTCLDY    26  18  71 CALM      30.70R
NEW YORK CITY  PTCLDY    37  22  54 NE17      30.64R WCI  27
$$

ANZALL-171100-
MARINE OBSERVATIONS

STATION/POSITION TIME  TEMP    WIND        PRES    VSBY  WAVE
                       AIR SEA DIR/SP/G                  HT/PER
                 (UTC) (F)     (DEG/KT/KT) (MB)    (MI)  (FT/S)
BOSTON BUOY      0950   34 40   50/ 19/ 23 1040.1R         5/ 6
BUZZARDS BAY     0900           30/ 22/ 25 1038.1F
NANTUCKET SOUND  0950   38 45   50/ 23/ 27 1037.2R         3/ 4
MASS BAY-STELLWA 0904   34 40   40/ 19/ 23 1038.9R  1 7/8  6/11
ISLE OF SHOALS   1000   31      40/ 22/ 25 1040.2R
S OF BLOCK IS    0925      42                N/A           5/10
$$

......................KEY.........................
  SKY/WX - SKY CONDITION/PRESENT WEATHER
  TMP    - TEMPERATURE IN FAHRENHEIT
  DWPT   - DEWPOINT IN FAHRENHEIT
  RH     - RELATIVE HUMIDITY IN PERCENT
  WIND   - DIRECTION AND SPEED IN MPH
  PRES   - MEAN SEA LEVEL PRESSURE IN INCHES OF HG
  WCI    - WIND CHILL INDEX
  VSB    - VISIBILITY IN MILES
  HX     - HEAT INDEX
  TC     - TEMPERATURE IN CELSIUS
  VRB    - VARIABLE WIND DIRECTION
  N/A    - NOT AVAILABLE



USA.gov is the U.S. government's official web portal to all federal, state and local government web resources and services.